{"data":{"norad_id":46343,"epoch":"2026-05-25T06:00:02.000160Z","epoch_age_seconds":60279,"freshness":"FRESH","line1":"1 46343U 20062U   26145.25002315  .00390201  69277-4  11500-2 0  9995","line2":"2 46343  53.0312 294.2052 0007719 277.1221  81.9490 15.92081386  6028","mean_motion":15.92081386,"eccentricity":0.0007719,"inclination_deg":53.0312,"raan_deg":294.2052,"arg_perigee_deg":277.1221,"mean_anomaly_deg":81.949,"bstar":0.00115,"rev_number":602,"period_min":90.447637455137,"perigee_km":291.30709875187,"apogee_km":301.61134039565,"semimajor_km":6674.5962195738,"source":"CELESTRAK","updated_at":"2026-05-25T13:38:16.471587Z"}}